Regional Weather Roundup
Issued by NWS

Home | Current Version | Previous Version | Graphics & Text | Print | Product List | Glossary On
Versions: 1 2 3 4 5 6 7 8 9 10 11 12 13 14 15 16 17 18 19 20 21 22 23 24 25 26 27 28 29 30 31 32 33 34 35 36 37 38 39 40 41 42 43 44 45 46 47 48 49 50
000
ASUS43 KOAX 301810
RWRNE

WEATHER ROUNDUP FOR NEBRASKA
NATIONAL WEATHER SERVICE OMAHA NE
100 PM CDT SAT APR 30 2016

NOTES: SATELLITE DATA IS BEING USED TO AUGMENT CLOUD COVER ABOVE
       12000 FEET.
       "FAIR" INDICATES FEW OR NO CLOUDS BELOW 12,000 FEET WITH NO
       SIGNIFICANT WEATHER AND/OR OBSTRUCTIONS TO VISIBILITY.

  * THESE STATIONS DO NOT REPORT WEATHER SUCH AS RAIN...SNOW OR FOG.

NEZ001>004-019>022-054>056-301900-
NEBRASKA PANHANDLE

CITY           SKY/WX    TMP DP  RH WIND       PRES   REMARKS
SCOTTSBLUFF    LGT RAIN  37  33  85 N17       29.99R WCI  27
6HR MIN TEMP:  34; 6HR MAX TEMP:  37; 6HR PCP:  0.08;

ALLIANCE       LGT SNOW  34  32  92 N22       29.92S VSB 3/4 WCI  22
CHADRON        LGT RAIN  41  37  86 N21G30    30.02S
6HR MIN TEMP:  37; 6HR MAX TEMP:  41; 6HR PCP:  0.25;

KIMBALL        HVY RAIN  34  33  95 N21       29.94S VSB 1/2 WCI  22
SIDNEY         LGT SNOW  35  32  88 N24       29.91R FOG     WCI  23
6HR MIN TEMP:  32; 6HR MAX TEMP:  34; 6HR PCP: TRACE;

$$

NEZ057>060-069>072-079>082-301900-
SOUTHWEST NEBRASKA

CITY           SKY/WX    TMP DP  RH WIND       PRES   REMARKS
NORTH PLATTE   MIX PCPN  36  34  92 N20       29.83R WCI  25
6HR MIN TEMP:  32; 6HR MAX TEMP:  36; 6HR PCP:  0.08;

IMPERIAL       CLOUDY    36  33  89 N17       29.85R WCI  26
6HR MIN TEMP:  33; 6HR MAX TEMP:  35; 6HR PCP:  0.02;

LEXINGTON      LGT RAIN  40  37  87 N12       29.79S WCI  33
MCCOOK         CLOUDY    41  38  89 N17       29.80F
6HR MIN TEMP:  36; 6HR MAX TEMP:  41; 6HR PCP:  0.02;

OGALLALA       LGT RAIN  35  33  90 N20G25    29.87S WCI  24
$$

NEZ005>010-023>029-035>040-094-301900-
NORTH CENTRAL NEBRASKA

CITY           SKY/WX    TMP DP  RH WIND       PRES   REMARKS
VALENTINE      LGT RAIN  40  37  89 NE24G33   29.92S WCI  29
6HR MIN TEMP:  38; 6HR MAX TEMP:  40; 6HR PCP:  0.53;

AINSWORTH      LGT RAIN  35  35  99 NE25G31   29.88S WCI  23
BROKEN BOW     CLOUDY    38  36  92 N17G29    29.79S WCI  28
6HR MIN TEMP:  35; 6HR MAX TEMP:  38; 6HR PCP:  0.09;

O`NEILL        LGT RAIN  42  40  93 NE23      29.84S
ORD              N/A     43  39  86 NE17G25   29.77S
6HR MIN TEMP:  40; 6HR MAX TEMP:  43; 6HR PCP:  0.13;

THEDFORD       CLOUDY    35  34  96 N13G18    29.87S WCI  26
$$

NEZ041-046>049-061>064-073>077-083>087-301900-
SOUTH CENTRAL NEBRASKA

CITY           SKY/WX    TMP DP  RH WIND       PRES   REMARKS
GRAND ISLAND   LGT RAIN  44  42  93 NE13      29.75R FOG
6HR MIN TEMP:  42; 6HR MAX TEMP:  45; 6HR PCP:  0.04;

AURORA         CLOUDY    45  45  99 NE12      29.73R FOG
HASTINGS       LGT RAIN  45  42  89 NE9       29.73R FOG
6HR MIN TEMP:  42; 6HR MAX TEMP:  45; 6HR PCP:  0.02;

HEBRON         CLOUDY    49  47  90 NW5       29.72R
HOLDREGE       DRIZZLE   43  41  94 N8        29.76S
KEARNEY *      CLOUDY    43  39  87 N12       29.76R
YORK           LGT RAIN  46  46 100 NE9       29.72S
$$

NEZ011>018-030>034-042>045-301900-
NORTHEAST NEBRASKA

CITY           SKY/WX    TMP DP  RH WIND       PRES   REMARKS
NORFOLK        CLOUDY    44  41  89 NE17G24   29.76F
6HR MIN TEMP:  42; 6HR MAX TEMP:  44; 6HR PCP:  0.58;

ALBION         CLOUDY    43  42  95 NE20      29.77R FOG
BLAIR          CLOUDY    47  46  96 NE17      29.72R FOG
COLUMBUS *     CLOUDY    46  37  71 NE14G21   29.75R
FREMONT        CLOUDY    47  47  98 E10G18    29.74S FOG
TEKAMAH        LGT RAIN  47  45  93 NE12      29.76R FOG
6HR MIN TEMP:  44; 6HR MAX TEMP:  47; 6HR PCP:  0.77;

WAYNE          LGT RAIN  44  43  95 NE18      29.80S
$$

NEZ050>053-065>068-078-088>093-301900-
SOUTHEAST NEBRASKA

CITY           SKY/WX    TMP DP  RH WIND       PRES   REMARKS
LINCOLN        CLOUDY    51  48  89 NE13      29.71F FOG
6HR MIN TEMP:  46; 6HR MAX TEMP:  51; 6HR PCP:  0.05;

OMAHA EPPLEY   LGT RAIN  49  46  90 E10       29.73R FOG
6HR MIN TEMP:  46; 6HR MAX TEMP:  49; 6HR PCP:  0.42;

BEATRICE       CLOUDY    51  48  91 CALM      29.70R
FALLS CITY     CLOUDY    58  55  90 S7        29.67R
6HR MIN TEMP:  50; 6HR MAX TEMP:  58; 6HR PCP:  0.14;

NEBRASKA CITY  LGT RAIN  51  51 100 NE7       29.69S
PLATTSMOUTH    CLOUDY    49  49  99 E13       29.71S FOG
$$

NEZ044-045-051>053-067-301900-
OMAHA AREA

CITY           SKY/WX    TMP DP  RH WIND       PRES   REMARKS
OMAHA EPPLEY   LGT RAIN  49  46  90 E10       29.73R FOG
6HR MIN TEMP:  46; 6HR MAX TEMP:  49; 6HR PCP:  0.42;

BLAIR          CLOUDY    47  46  96 NE17      29.72R FOG
FREMONT        CLOUDY    47  47  98 E10G18    29.74S FOG
MILLARD        CLOUDY    49  47  93 E7        29.72R FOG
OFFUTT AFB     LGT RAIN  48  48 100 NE12      29.71S FOG
PLATTSMOUTH    CLOUDY    49  49  99 E13       29.71S FOG
WAHOO          LGT RAIN  49  47  93 E13       29.72S
$$



USA.gov is the U.S. government's official web portal to all federal, state and local government web resources and services.